Weather History for Marysville, OH

Change the Weather History Date:

Wednesday, August 21, 2013

  Actual Average (KDLZ) Record (KDLZ)
Temperature  
Mean Temperature 68 °F -  
Max Temperature 82 °F 80 °F 101 °F (1936)
Min Temperature 55 °F 57 °F 42 °F (1940)
Cooling Degree Days 4    
Growing Degree Days 18 (Base 50)    
Moisture  
Dew Point 61 °F    
Average Humidity 81    
Maximum Humidity 95    
Minimum Humidity 57    
Precipitation  
Precipitation 0.04 in - - ()
Sea Level Pressure  
Sea Level Pressure 30.15 in    
Wind  
Wind Speed 2 mph (SSW)    
Max Wind Speed 15 mph    
Max Gust Speed 21 mph    
Visibility 7 miles    
Events      
Averages and records for this station are not official NWS values.
T = Trace of Precipitation, MM = Missing Value Source: NWS Daily Summary

Daily Weather History Graph

Daily Weather History Graph

Search for Another Location

Airport:

Trip Planner

Search our weather history database for the weather conditions in past years. The results will help you decide how hot, cold, wet, or windy it might be!

Date:

Astronomy

Aug. 21, 2013 Rise Set
Actual Time 6:50 AM EDT 8:21 PM EDT
Civil Twilight 6:21 AM EDT 8:50 PM EDT
Nautical Twilight 5:47 AM EDT 9:24 PM EDT
Astronomical Twilight 5:10 AM EDT 10:00 PM EDT
Moon 8:29 PM EDT (8/21) 7:29 AM EDT (8/21)
Length of Visible Light 14h 28m
Length of Day
13h 30m
Full, 100% of the Moon is Illuminated
Aug 21
Full
Aug 28
Last Quarter
Sep 5
New
Sep 12
First Quarter
Sep 19
Full

Hourly Weather History & Observations

Time (EDT) Temp. Heat Index Dew Point Humidity Pressure Visibility Wind Dir Wind Speed Gust Speed Precip Events Conditions
12:13 AM 60.1 °F - 56.5 °F 88% 30.17 in 7.0 mi Calm Calm - N/A   Clear
12:33 AM 60.1 °F - 56.5 °F 88% 30.18 in 7.0 mi Calm Calm - N/A   Clear
12:54 AM 60.6 °F - 57.6 °F 90% 30.18 in 7.0 mi Calm Calm - N/A   Clear
1:13 AM 60.6 °F - 57.7 °F 90% 30.18 in 5.0 mi Calm Calm - N/A   Clear
1:33 AM 58.6 °F - 55.8 °F 90% 30.18 in 4.0 mi Calm Calm - N/A   Clear
1:54 AM 58.1 °F - 55.6 °F 91% 30.17 in 2.0 mi Calm Calm - N/A   Clear
2:13 AM 59.5 °F - 57.4 °F 93% 30.17 in 4.0 mi Calm Calm - N/A   Clear
2:33 AM 59.4 °F - 57.4 °F 93% 30.17 in 1.0 mi Calm Calm - N/A   Unknown
2:54 AM 57.6 °F - 55.4 °F 92% 30.17 in 4.0 mi Calm Calm - N/A   Clear
3:13 AM 59.2 °F - 57.2 °F 93% 30.17 in 2.0 mi Calm Calm - N/A   Clear
3:33 AM 58.5 °F - 56.3 °F 93% 30.17 in 3.0 mi Calm Calm - N/A   Clear
3:54 AM 57.2 °F - 54.9 °F 92% 30.16 in 0.5 mi Calm Calm - N/A   Unknown
4:13 AM 58.5 °F - 56.5 °F 93% 30.16 in 0.8 mi Calm Calm - N/A   Unknown
4:33 AM 55.9 °F - 54.0 °F 93% 30.17 in 0.2 mi Calm Calm - N/A   Unknown
4:54 AM 56.1 °F - 54.3 °F 94% 30.17 in 0.2 mi Calm Calm - N/A   Unknown
5:13 AM 57.6 °F - 55.9 °F 94% 30.17 in 0.2 mi Calm Calm - N/A   Mostly Cloudy
5:33 AM 55.9 °F - 54.5 °F 95% 30.17 in 0.2 mi Calm Calm - N/A   Mostly Cloudy
5:54 AM 55.6 °F - 54.0 °F 94% 30.17 in 1.0 mi Calm Calm - N/A   Unknown
6:13 AM 55.9 °F - 54.3 °F 94% 30.17 in 0.5 mi Calm Calm - N/A   Unknown
6:33 AM 55.9 °F - 54.3 °F 94% 30.17 in 1.0 mi Calm Calm - N/A   Unknown
6:54 AM 55.8 °F - 54.3 °F 95% 30.17 in 0.2 mi Calm Calm - N/A   Overcast
7:13 AM 55.9 °F - 54.5 °F 95% 30.18 in 0.2 mi Calm Calm - N/A   Overcast
7:33 AM 57.6 °F - 55.9 °F 94% 30.18 in 0.8 mi Calm Calm - N/A   Overcast
7:54 AM 60.3 °F - 58.8 °F 95% 30.19 in 1.8 mi Calm Calm - N/A   Mostly Cloudy
8:13 AM 63.1 °F - 61.3 °F 94% 30.19 in 1.8 mi Calm Calm - N/A   Unknown
8:33 AM 66.4 °F - 64.8 °F 95% 30.20 in 4.0 mi Calm Calm - N/A   Clear
8:54 AM 69.3 °F - 64.4 °F 84% 30.20 in 7.0 mi Calm Calm - N/A   Clear
9:13 AM 72.1 °F - 63.0 °F 73% 30.20 in 10.0 mi South 4.6 mph - N/A   Clear
9:33 AM 70.3 °F - 62.8 °F 77% 30.20 in 7.0 mi South 3.5 mph - N/A   Scattered Clouds
9:53 AM 69.8 °F - 63.0 °F 79% 30.20 in 7.0 mi SSW 4.6 mph - N/A   Mostly Cloudy
10:13 AM 71.2 °F - 64.2 °F 78% 30.20 in 7.0 mi Calm Calm - N/A   Scattered Clouds
10:34 AM 73.8 °F - 63.9 °F 71% 30.20 in 10.0 mi South 5.8 mph - N/A   Scattered Clouds
10:53 AM 75.0 °F - 64.4 °F 69% 30.20 in 10.0 mi South 4.6 mph - N/A   Scattered Clouds
11:13 AM 75.9 °F - 64.2 °F 67% 30.20 in 10.0 mi South 6.9 mph - N/A   Scattered Clouds
11:34 AM 75.7 °F - 64.2 °F 67% 30.20 in 10.0 mi South 4.6 mph - N/A   Overcast
11:54 AM 78.4 °F - 64.9 °F 63% 30.20 in 10.0 mi South 6.9 mph - N/A   Overcast
12:13 PM 77.5 °F - 64.9 °F 65% 30.20 in 10.0 mi Calm Calm - N/A   Overcast
12:33 PM 77.9 °F - 65.1 °F 65% 30.19 in 10.0 mi SSW 4.6 mph - N/A   Mostly Cloudy
12:54 PM 77.7 °F - 65.3 °F 65% 30.18 in 10.0 mi SW 4.6 mph - N/A   Mostly Cloudy
1:13 PM 78.4 °F - 65.5 °F 64% 30.17 in 10.0 mi Calm Calm - N/A   Mostly Cloudy
1:34 PM 78.8 °F - 65.7 °F 64% 30.16 in 10.0 mi South 3.5 mph - N/A   Scattered Clouds
1:54 PM 78.6 °F - 66.0 °F 65% 30.16 in 10.0 mi SSW 3.5 mph - N/A   Clear
2:13 PM 78.1 °F - 66.0 °F 66% 30.15 in 10.0 mi SSW 3.5 mph - N/A   Clear
2:33 PM 79.2 °F - 66.9 °F 66% 30.14 in 10.0 mi South 4.6 mph - N/A   Clear
2:54 PM 81.0 °F 83.2 °F 66.4 °F 61% 30.14 in 10.0 mi SW 3.5 mph - N/A   Scattered Clouds
3:13 PM 79.5 °F - 66.2 °F 64% 30.13 in 10.0 mi South 5.8 mph - N/A   Mostly Cloudy
3:33 PM 79.9 °F - 66.9 °F 64% 30.12 in 10.0 mi SSW 6.9 mph - N/A   Scattered Clouds
3:54 PM 79.9 °F - 66.2 °F 63% 30.12 in 10.0 mi SSW 6.9 mph - N/A   Clear
4:13 PM 79.9 °F - 67.3 °F 65% 30.12 in 10.0 mi SSW 8.1 mph - N/A   Scattered Clouds
4:33 PM 82.2 °F 84.6 °F 66.7 °F 59% 30.12 in 10.0 mi WSW 5.8 mph - N/A   Clear
4:54 PM 80.2 °F 82.5 °F 66.6 °F 63% 30.11 in 10.0 mi South 10.4 mph - N/A   Scattered Clouds
5:13 PM 80.1 °F 82.3 °F 67.1 °F 64% 30.13 in 10.0 mi SSW 6.9 mph - N/A   Scattered Clouds
5:33 PM 77.7 °F - 66.4 °F 68% 30.12 in 10.0 mi South 5.8 mph - N/A   Scattered Clouds
5:54 PM 77.5 °F - 66.2 °F 68% 30.12 in 10.0 mi Calm Calm - N/A   Scattered Clouds
6:13 PM 72.9 °F - 56.8 °F 57% 30.14 in 5.0 mi West 15.0 mph 20.7 mph 0.01 in   Mostly Cloudy
6:34 PM - - - N/A% 30.14 in - Calm Calm - N/A   Unknown
6:53 PM 62.6 °F - 57.9 °F 85% 30.12 in 4.0 mi SW 4.6 mph - 0.02 in   Overcast
7:13 PM 62.6 °F - 57.4 °F 83% 30.10 in 5.0 mi WSW 9.2 mph - N/A   Overcast
7:34 PM 63.1 °F - 58.1 °F 84% 30.09 in 10.0 mi SW 6.9 mph - 0.02 in   Scattered Clouds
7:53 PM 64.0 °F - 59.5 °F 85% 30.09 in 10.0 mi Calm Calm - 0.02 in   Clear
8:13 PM 64.4 °F - 60.3 °F 86% 30.08 in 10.0 mi SW 5.8 mph - N/A   Clear
8:33 PM 65.3 °F - 60.3 °F 84% 30.09 in 10.0 mi Calm Calm - N/A   Clear
8:53 PM 63.7 °F - 60.1 °F 88% 30.09 in 10.0 mi South 5.8 mph - N/A   Clear
9:13 PM 63.0 °F - 59.2 °F 87% 30.09 in 10.0 mi SSW 8.1 mph - N/A   Clear
9:33 PM 63.5 °F - 59.2 °F 86% 30.10 in 10.0 mi SSE 3.5 mph - N/A   Clear
9:53 PM 62.8 °F - 58.6 °F 86% 30.11 in 10.0 mi Calm Calm - N/A   Clear
10:14 PM 62.6 °F - 59.0 °F 88% 30.11 in 10.0 mi Calm Calm - N/A   Clear
10:33 PM 62.4 °F - 59.4 °F 90% 30.12 in 10.0 mi Calm Calm - N/A   Clear
10:53 PM 61.5 °F - 58.1 °F 89% 30.13 in 10.0 mi Calm Calm - N/A   Clear
11:14 PM 62.1 °F - 59.4 °F 91% 30.13 in 7.0 mi Calm Calm - N/A   Clear
11:33 PM 61.9 °F - 59.2 °F 91% 30.13 in 7.0 mi Calm Calm - N/A   Clear
11:53 PM 61.9 °F - 59.7 °F 93% 30.14 in 7.0 mi Calm Calm - N/A   Clear